Find Starlink 32906

NORAD ID: 63080 Int'l Des: 2025-037 Owner: SPXS Country: US Constellation: starlink operational
LEOCIRCULAR

Current View

Loading 3D Globe...

About Starlink 32906

Starlink 32906 (NORAD 63080) is a starlink constellation satellite (v2 mini) launched Feb 23, 2025 by SPXS of US. It operates in LEO, CIRCULAR orbit with a mass of 730.00 kg.

Upcoming Passes

Passes for default location (London). Set your location on the main map for personalized predictions.

Altitude History

Loading altitude history...

Two-Line Element Set

1 63080U 25037D 26263.58961714 .00013148 00000-0 46082-3 0 9994
2 63080 69.9955 220.7489 0003747 269.8082 90.2663 15.29591700 87853
Epoch: Sep 20, 2026 • Age: 18 hours

Current Status

Altitude 489.3 km
Apogee / Perigee N/A
Velocity 7.63 km/s
Sub-Earth Point 61.57°N, 121.86°W
Launch Date Feb 23, 2025
Age 1.5 years
Type internet

Technical Details

Classification Payload
Mass 730.00 kg
Dry Mass 700.00 kg
Length 0.30 m
Span 29.00 m
Shape ? Box + pan
Manufacturer SPXS
Bus Type Starlink V2M
Phase Status In Orbit
Owner/State SPXS/US

Most Searched